Location: Biberach+an+der+Riss
(48.0937°N, 9.7888°E)
Time: 04:44:48
(UTC+02:00)

ISS - Pass Details

Date: 28 September 2020
Orbit: 418 x 420 km, 51.6° (Epoch: 20 October)

Event Time Altitude Azimuth Distance (km) Brightness Sun altitude
Rises 20:15:25 0° 284° (WNW) 2,368 2.2 -12.5°
Reaches altitude 10° 20:17:35 10° 291° (WNW) 1,504 0.5 -12.8°
Maximum altitude 20:20:50 45° 6° (N) 584 -3.0 -13.4°
Enters shadow 20:22:41 22° 69° (ENE) 975 -2.4 -13.7°
